Regional Weather Roundup
Issued by NWS

Home | Current Version | Previous Version | Graphics & Text | Print | Product List | Glossary On
Versions: 1 2 3 4 5 6 7 8 9 10 11 12 13 14 15 16 17 18 19 20 21 22 23 24 25 26 27 28 29 30 31 32 33 34 35 36 37 38 39 40 41 42 43 44 45 46 47 48 49 50
082
ASUS43 KDTX 221810
RWRMI
MICHIGAN HOURLY REGIONAL WEATHER ROUNDUP
NATIONAL WEATHER SERVICE DETROIT/PONTIAC MI
100 PM EST WED FEB 22 2017

NOTE: "FAIR" INDICATES FEW OR NO CLOUDS BELOW 12,000 FEET WITH NO
SIGNIFICANT WEATHER AND/OR OBSTRUCTION TO VISIBILITY.

MIZ047>049-052>055-059>063-066>070-074>076-081>083-221900-
SOUTHEAST LOWER MICHIGAN

CITY           SKY/WX    TMP DP  RH WIND       PRES   REMARKS
ADRIAN         CLOUDY    59  54  83 SW9       29.82F
6HR MIN TEMP:  46; 6HR MAX TEMP:  59;

ALMA           CLOUDY    55  54  97 SW14G20   29.75F FOG
ANN ARBOR      CLOUDY    59  54  83 S8        29.80F
BAD AXE        MOSUNNY   63  55  77 SW12      29.74F
6HR MIN TEMP:  41; 6HR MAX TEMP:  63;

CARO           CLOUDY    59  53  80 SW7       29.75F
DETROIT CITY   PTSUNNY   61  54  77 W12       29.81F
6HR MIN TEMP:  47; 6HR MAX TEMP:  62;

DETROIT        CLOUDY    62  54  74 W8        29.81F FOG
6HR MIN TEMP:  46; 6HR MAX TEMP:  62;

FLINT          CLOUDY    62  53  72 SW9       29.77F
6HR MIN TEMP:  45; 6HR MAX TEMP:  62;

GROSSE ILE     CLOUDY    51  48  88 S7        29.80F FOG
6HR MIN TEMP:  38; 6HR MAX TEMP:  54;

HILLSDALE      CLOUDY    55  52  88 S8        29.80F FOG
HOWELL         CLOUDY    60  51  72 S12       29.78F
6HR MIN TEMP:  47; 6HR MAX TEMP:  61;


CITY           SKY/WX    TMP DP  RH WIND       PRES   REMARKS
JACKSON        CLOUDY    59  52  77 SW10      29.79F
6HR MIN TEMP:  46; 6HR MAX TEMP:  59; 6HR PCP: TRACE;

LAMBERTVILLE   CLOUDY    65  54  68 SW6       29.81F
6HR MIN TEMP:  54; 6HR MAX TEMP:  65;

LANSING        CLOUDY    62  52  69 S13       29.77F
6HR MIN TEMP:  45; 6HR MAX TEMP:  62;

LAPEER         CLOUDY    61  53  75 SW9       29.78F
6HR MIN TEMP:  32; 6HR MAX TEMP:  61;

MASON          CLOUDY    59  54  84 S6        29.79S
MONROE         CLOUDY    62  55  77 W12       29.80F
6HR MIN TEMP:  41; 6HR MAX TEMP:  63;

MT. CLEMENS    PTSUNNY   62  55  76 SW13      29.78F HAZE
6HR MIN TEMP:  39; 6HR MAX TEMP:  65;

PONTIAC        CLOUDY    59  52  77 SW9       29.78F
6HR MIN TEMP:  39; 6HR MAX TEMP:  59;

PORT HOPE        N/A     61  54  77 W7G17     29.72F
6HR MIN TEMP:  43; 6HR MAX TEMP:  61;

PORT HURON     PTSUNNY   59  52  77 S7        29.79F
TRI CITIES     CLOUDY    57  54  89 SW13      29.76F FOG
6HR MIN TEMP:  41; 6HR MAX TEMP:  57;

MIDLAND        CLOUDY    54  53  97 SW9       29.74F FOG
6HR MIN TEMP:  43; 6HR MAX TEMP:  54;

TROY           CLOUDY    59  52  77 W6        29.82F
SAGINAW HB     MOSUNNY   59  52  77 SW15      29.74F HAZE
$$
MIZ043>046-050>051-056>058-064>065-071>073-077>080-221900-
SOUTHWEST LOWER MICHIGAN

CITY           SKY/WX    TMP DP  RH WIND       PRES   REMARKS
BATTLE CREEK     N/A     58  53  84 S12       29.78F
BENTON HARBOR  CLOUDY    63  53  70 S14G20    29.76F HAZE
6HR MIN TEMP:  53; 6HR MAX TEMP:  63;

BIG RAPIDS     CLOUDY    54  53  96 SW7       29.71F FOG
6HR MIN TEMP:  50; 6HR MAX TEMP:  54;

COLDWATER      CLOUDY    59  54  85 S6        29.79F HAZE
6HR MIN TEMP:  45; 6HR MAX TEMP:  59;

FREMONT        CLOUDY    53  53 100 SW13      29.73S FOG
HOLLAND        CLOUDY    58  54  86 SW14      29.75F FOG
6HR MIN TEMP:  49; 6HR MAX TEMP:  58;

GRAND RAPIDS   CLOUDY    59  52  77 SW10      29.75F
6HR MIN TEMP:  49; 6HR MAX TEMP:  59;

IONIA          CLOUDY    59  53  80 SW12      29.75F
6HR MIN TEMP:  46; 6HR MAX TEMP:  59;

KALAMAZOO      CLOUDY    58  52  80 S12       29.78F HAZE
6HR MIN TEMP:  49; 6HR MAX TEMP:  60;

LUDINGTON      CLOUDY    54  52  94 S13G22    29.68S FOG
6HR MIN TEMP:  51; 6HR MAX TEMP:  54;

MARSHALL       CLOUDY    58  54  86 S9        29.78F FOG
6HR MIN TEMP:  48; 6HR MAX TEMP:  58;

MOUNT PLEASANT CLOUDY    55  54  98 S9        29.72F FOG
6HR MIN TEMP:  43; 6HR MAX TEMP:  55;

MUSKEGON       FOG       53  52  96 S13       29.74F VSB 1/2
6HR MIN TEMP:  47; 6HR MAX TEMP:  54; 6HR PCP: TRACE;

SOUTH HAVEN    MOSUNNY   62  56  79 W7        29.75F
$$
MIZ016>042-221900-
NORTHERN LOWER MICHIGAN

CITY           SKY/WX    TMP DP  RH WIND       PRES   REMARKS
ALPENA         MOSUNNY   60  48  64 SW12      29.67F
6HR MIN TEMP:  35; 6HR MAX TEMP:  60;

BEAVER ISLAND  FOG       42  41  98 SW7       29.63F VSB 1/4
6HR MIN TEMP:  42; 6HR MAX TEMP:  53;

BELLAIRE       MOSUNNY   61  47  61 SW8       29.63F
6HR MIN TEMP:  38; 6HR MAX TEMP:  61;

CADILLAC       PTSUNNY   56  51  83 S15G22    29.67F
CHARLEVOIX     MOSUNNY   57  48  72 SW10      29.68R
FRANKFORT      MOSUNNY   55  49  81 S10G16    29.63F
GAYLORD        MOSUNNY   55  45  68 S10       29.65F
6HR MIN TEMP:  40; 6HR MAX TEMP:  55;

GRAYLING       MOSUNNY   60  51  73 S8        29.68F
HARBOR SPRINGS SUNNY     57  48  71 W6        29.64F
HOUGHTON LAKE  CLOUDY    52  50  93 S8        29.71F
6HR MIN TEMP:  45; 6HR MAX TEMP:  52;

MANISTEE       PTSUNNY   58  50  75 S9G18     29.65F
OSCODA         CLOUDY    55  52  89 SW13      29.70F
6HR MIN TEMP:  41; 6HR MAX TEMP:  55;

PELLSTON       PTSUNNY   57  45  64 SW8       29.64F
6HR MIN TEMP:  34; 6HR MAX TEMP:  58;

ROGERS CITY    CLOUDY    55  46  73 S6        29.65F
TRAVERSE CITY  PTSUNNY   62  47  57 S9G17     29.63F
6HR MIN TEMP:  50; 6HR MAX TEMP:  62;

$$
MIZ007>008-015-221900-
EASTERN UPPER MICHIGAN

CITY           SKY/WX    TMP DP  RH WIND       PRES   REMARKS
KINROSS        CLOUDY    48  43  82 SW6       29.65F
6HR MIN TEMP:  33; 6HR MAX TEMP:  50;

MACKINAC ISLAN CLOUDY    44  37  78 NE3       29.65S
6HR MIN TEMP:  35; 6HR MAX TEMP:  51;

NEWBERRY       CLOUDY    44  40  85 S5        29.61F
6HR MIN TEMP:  36; 6HR MAX TEMP:  44;

S. S. MARIE    PTSUNNY   45  38  76 CALM      29.65F
6HR MIN TEMP:  35; 6HR MAX TEMP:  45; 6HR PCP: TRACE;

MUNISING         N/A     45  35  68 N3        29.57F
6HR MIN TEMP:  40; 6HR MAX TEMP:  52;

$$
MIZ004>006-011>014-085-221900-
CENTRAL UPPER MICHIGAN

CITY           SKY/WX    TMP DP  RH WIND       PRES   REMARKS
MANISTIQUE     FOG       37  36  98 CALM      29.61F VSB 1/2
6HR MIN TEMP:  35; 6HR MAX TEMP:  40;

ESCANABA       CLOUDY    43  38  82 S9        29.61S
6HR MIN TEMP:  35; 6HR MAX TEMP:  45;

MENOMINEE      CLOUDY    57  40  52 NW3       29.59F
6HR MIN TEMP:  34; 6HR MAX TEMP:  57; 6HR PCP: TRACE;

SAWYER-GWINN   PTSUNNY   48  39  71 E7        29.58F
$$
MIZ001>003-009>011-084-221900-
WESTERN UPPER MICHIGAN

CITY           SKY/WX    TMP DP  RH WIND       PRES   REMARKS
IRON MOUNTAIN  MOSUNNY   52  37  56 S6        29.56F
6HR MIN TEMP:  30; 6HR MAX TEMP:  53;

HOUGHTON       CLOUDY    43  33  68 NW3       29.57F
6HR MIN TEMP:  36; 6HR MAX TEMP:  43; 6HR PCP: TRACE;

COPPER HARBOR    N/A     36  35  96 N7        29.60F WCI  30
6HR MIN TEMP:  35; 6HR MAX TEMP:  42;

IRONWOOD       CLOUDY    47  40  76 W5        29.61R
6HR MIN TEMP:  33; 6HR MAX TEMP:  48;

$$

ABBREVIATIONS USED IN REMARKS
   TC - TEMPERATURE IN CELSIUS
  WCI - WIND CHILL INDEX
   HX - HEAT INDEX
  VSB - VISIBILITY





USA.gov is the U.S. government's official web portal to all federal, state and local government web resources and services.